owner,sensor,date,latitude,longitude,vertical_datum,sea_water_practical_salinity,qcFlag 
NERRS,ioos:station:NOAA.NERRS:rkblhwq:1,2019-11-05T14:45:00Z,26.0257,-81.7332,1.51,30.0,11111222 
NERRS,ioos:station:NOAA.NERRS:rkblhwq:1,2019-11-05T15:45:00Z,26.0257,-81.7332,1.43,30.3,11111222 
NERRS,ioos:station:NOAA.NERRS:rkblhwq:1,2019-11-05T16:45:00Z,26.0257,-81.7332,1.34,29.9,11111222 
NERRS,ioos:station:NOAA.NERRS:rkblhwq:1,2019-11-05T17:45:00Z,26.0257,-81.7332,1.24,29.9,11111222 
NERRS,ioos:station:NOAA.NERRS:rkblhwq:1,2019-11-05T18:45:00Z,26.0257,-81.7332,1.15,30.2,11111222 
NERRS,ioos:station:NOAA.NERRS:rkblhwq:1,2019-11-05T19:45:00Z,26.0257,-81.7332,1.1,29.7,11111222 
NERRS,ioos:station:NOAA.NERRS:rkblhwq:1,2019-11-05T20:45:00Z,26.0257,-81.7332,1.13,16.0,11111222 
NERRS,ioos:station:NOAA.NERRS:rkblhwq:1,2019-11-05T21:45:00Z,26.0257,-81.7332,1.21,29.6,11111222 
NERRS,ioos:station:NOAA.NERRS:rkblhwq:1,2019-11-05T22:45:00Z,26.0257,-81.7332,1.31,29.5,11111222 
NERRS,ioos:station:NOAA.NERRS:rkblhwq:1,2019-11-05T23:45:00Z,26.0257,-81.7332,1.42,29.8,11111222 
NERRS,ioos:station:NOAA.NERRS:rkblhwq:1,2019-11-06T00:45:00Z,26.0257,-81.7332,1.53,16.4,11111222 
NERRS,ioos:station:NOAA.NERRS:rkblhwq:1,2019-11-06T01:45:00Z,26.0257,-81.7332,1.59,27.4,11111222 
NERRS,ioos:station:NOAA.NERRS:rkblhwq:1,2019-11-06T02:45:00Z,26.0257,-81.7332,1.61,30.4,11111222 
NERRS,ioos:station:NOAA.NERRS:rkblhwq:1,2019-11-06T03:45:00Z,26.0257,-81.7332,1.6,16.5,11111222 
NERRS,ioos:station:NOAA.NERRS:rkblhwq:1,2019-11-06T04:45:00Z,26.0257,-81.7332,1.5,30.0,11111222 
NERRS,ioos:station:NOAA.NERRS:rkblhwq:1,2019-11-06T05:45:00Z,26.0257,-81.7332,1.4,30.0,11111222 
NERRS,ioos:station:NOAA.NERRS:rkblhwq:1,2019-11-06T06:45:00Z,26.0257,-81.7332,1.29,29.5,11111222 
NERRS,ioos:station:NOAA.NERRS:rkblhwq:1,2019-11-06T07:45:00Z,26.0257,-81.7332,1.2,29.5,11111222 
NERRS,ioos:station:NOAA.NERRS:rkblhwq:1,2019-11-06T08:45:00Z,26.0257,-81.7332,1.19,22.9,11111222 
NERRS,ioos:station:NOAA.NERRS:rkblhwq:1,2019-11-06T09:45:00Z,26.0257,-81.7332,1.25,29.7,11111222 
NERRS,ioos:station:NOAA.NERRS:rkblhwq:1,2019-11-06T10:45:00Z,26.0257,-81.7332,1.34,28.1,11111222 
NERRS,ioos:station:NOAA.NERRS:rkblhwq:1,2019-11-06T11:45:00Z,26.0257,-81.7332,1.42,29.8,11111222 
NERRS,ioos:station:NOAA.NERRS:rkblhwq:1,2019-11-06T12:45:00Z,26.0257,-81.7332,1.49,28.0,11111222 
NERRS,ioos:station:NOAA.NERRS:rkblhwq:1,2019-11-06T13:45:00Z,26.0257,-81.7332,1.51,30.8,11111222 
NERRS,ioos:station:NOAA.NERRS:rkblhwq:1,2019-11-06T14:45:00Z,26.0257,-81.7332,1.47,30.2,11111222 
NERRS,ioos:station:NOAA.NERRS:rkblhwq:1,2019-11-06T15:45:00Z,26.0257,-81.7332,1.41,28.8,11111222 
NERRS,ioos:station:NOAA.NERRS:rkblhwq:1,2019-11-06T16:45:00Z,26.0257,-81.7332,1.31,28.5,11111222 
NERRS,ioos:station:NOAA.NERRS:rkblhwq:1,2019-11-06T17:45:00Z,26.0257,-81.7332,1.19,28.7,11111222 
NERRS,ioos:station:NOAA.NERRS:rkblhwq:1,2019-11-06T18:45:00Z,26.0257,-81.7332,1.08,28.9,11111222 
NERRS,ioos:station:NOAA.NERRS:rkblhwq:1,2019-11-06T19:45:00Z,26.0257,-81.7332,0.99,29.1,11111222 
NERRS,ioos:station:NOAA.NERRS:rkblhwq:1,2019-11-06T20:45:00Z,26.0257,-81.7332,0.93,29.0,11111222 
NERRS,ioos:station:NOAA.NERRS:rkblhwq:1,2019-11-06T21:45:00Z,26.0257,-81.7332,0.99,29.5,11111222 
NERRS,ioos:station:NOAA.NERRS:rkblhwq:1,2019-11-06T22:45:00Z,26.0257,-81.7332,1.1,29.6,11111222 
NERRS,ioos:station:NOAA.NERRS:rkblhwq:1,2019-11-06T23:45:00Z,26.0257,-81.7332,1.22,29.8,11111222 
NERRS,ioos:station:NOAA.NERRS:rkblhwq:1,2019-11-07T00:45:00Z,26.0257,-81.7332,1.34,30.3,11111222 
NERRS,ioos:station:NOAA.NERRS:rkblhwq:1,2019-11-07T01:45:00Z,26.0257,-81.7332,1.44,30.5,11111222 
NERRS,ioos:station:NOAA.NERRS:rkblhwq:1,2019-11-07T02:45:00Z,26.0257,-81.7332,1.51,31.0,11111222 
NERRS,ioos:station:NOAA.NERRS:rkblhwq:1,2019-11-07T03:45:00Z,26.0257,-81.7332,1.53,31.1,11111222 
NERRS,ioos:station:NOAA.NERRS:rkblhwq:1,2019-11-07T04:45:00Z,26.0257,-81.7332,1.45,30.4,11111222 
NERRS,ioos:station:NOAA.NERRS:rkblhwq:1,2019-11-07T05:45:00Z,26.0257,-81.7332,1.35,29.7,11111222 
NERRS,ioos:station:NOAA.NERRS:rkblhwq:1,2019-11-07T06:45:00Z,26.0257,-81.7332,1.23,29.5,11111222 
NERRS,ioos:station:NOAA.NERRS:rkblhwq:1,2019-11-07T07:45:00Z,26.0257,-81.7332,1.13,29.3,11111222 
NERRS,ioos:station:NOAA.NERRS:rkblhwq:1,2019-11-07T08:45:00Z,26.0257,-81.7332,1.05,29.4,11111222 
NERRS,ioos:station:NOAA.NERRS:rkblhwq:1,2019-11-07T09:45:00Z,26.0257,-81.7332,1.05,29.2,11111222 
NERRS,ioos:station:NOAA.NERRS:rkblhwq:1,2019-11-07T10:45:00Z,26.0257,-81.7332,1.14,30.2,11111222 
NERRS,ioos:station:NOAA.NERRS:rkblhwq:1,2019-11-07T11:45:00Z,26.0257,-81.7332,1.26,30.1,11111222 
NERRS,ioos:station:NOAA.NERRS:rkblhwq:1,2019-11-07T12:45:00Z,26.0257,-81.7332,1.38,30.6,11111222 
NERRS,ioos:station:NOAA.NERRS:rkblhwq:1,2019-11-07T13:45:00Z,26.0257,-81.7332,1.48,30.8,11111222 
NERRS,ioos:station:NOAA.NERRS:rkblhwq:1,2019-11-07T14:45:00Z,26.0257,-81.7332,1.55,31.3,11111222 
NERRS,ioos:station:NOAA.NERRS:rkblhwq:1,2019-11-07T15:45:00Z,26.0257,-81.7332,1.53,30.6,11111222 
NERRS,ioos:station:NOAA.NERRS:rkblhwq:1,2019-11-07T16:45:00Z,26.0257,-81.7332,1.44,30.0,11111222 
NERRS,ioos:station:NOAA.NERRS:rkblhwq:1,2019-11-07T17:45:00Z,26.0257,-81.7332,1.32,29.8,11111222 
NERRS,ioos:station:NOAA.NERRS:rkblhwq:1,2019-11-07T18:45:00Z,26.0257,-81.7332,1.21,29.6,11111222 
NERRS,ioos:station:NOAA.NERRS:rkblhwq:1,2019-11-07T19:45:00Z,26.0257,-81.7332,1.1,29.5,11111222 
NERRS,ioos:station:NOAA.NERRS:rkblhwq:1,2019-11-07T20:45:00Z,26.0257,-81.7332,1.01,29.3,11111222 
NERRS,ioos:station:NOAA.NERRS:rkblhwq:1,2019-11-07T21:45:00Z,26.0257,-81.7332,0.98,29.1,11111222 
NERRS,ioos:station:NOAA.NERRS:rkblhwq:1,2019-11-07T22:45:00Z,26.0257,-81.7332,1.06,30.5,11111222 
NERRS,ioos:station:NOAA.NERRS:rkblhwq:1,2019-11-07T23:45:00Z,26.0257,-81.7332,1.18,30.1,11111222 
NERRS,ioos:station:NOAA.NERRS:rkblhwq:1,2019-11-08T00:45:00Z,26.0257,-81.7332,1.3,30.5,11111222 
NERRS,ioos:station:NOAA.NERRS:rkblhwq:1,2019-11-08T01:45:00Z,26.0257,-81.7332,1.43,30.9,11111222 
NERRS,ioos:station:NOAA.NERRS:rkblhwq:1,2019-11-08T02:45:00Z,26.0257,-81.7332,1.55,31.4,11111222 
NERRS,ioos:station:NOAA.NERRS:rkblhwq:1,2019-11-08T03:45:00Z,26.0257,-81.7332,1.61,31.8,11111222 
NERRS,ioos:station:NOAA.NERRS:rkblhwq:1,2019-11-08T04:45:00Z,26.0257,-81.7332,1.59,31.2,11111222 
NERRS,ioos:station:NOAA.NERRS:rkblhwq:1,2019-11-08T05:45:00Z,26.0257,-81.7332,1.49,31.3,11111222 
NERRS,ioos:station:NOAA.NERRS:rkblhwq:1,2019-11-08T06:45:00Z,26.0257,-81.7332,1.36,31.0,11111222 
NERRS,ioos:station:NOAA.NERRS:rkblhwq:1,2019-11-08T07:45:00Z,26.0257,-81.7332,1.24,30.4,11111222 
NERRS,ioos:station:NOAA.NERRS:rkblhwq:1,2019-11-08T08:45:00Z,26.0257,-81.7332,1.12,30.0,11111222 
NERRS,ioos:station:NOAA.NERRS:rkblhwq:1,2019-11-08T09:45:00Z,26.0257,-81.7332,1.03,30.8,11111222 
NERRS,ioos:station:NOAA.NERRS:rkblhwq:1,2019-11-08T10:45:00Z,26.0257,-81.7332,1.05,30.0,11111222 
NERRS,ioos:station:NOAA.NERRS:rkblhwq:1,2019-11-08T11:45:00Z,26.0257,-81.7332,1.18,30.4,11111222 
NERRS,ioos:station:NOAA.NERRS:rkblhwq:1,2019-11-08T12:45:00Z,26.0257,-81.7332,1.32,30.7,11111222 
NERRS,ioos:station:NOAA.NERRS:rkblhwq:1,2019-11-08T13:45:00Z,26.0257,-81.7332,1.46,31.1,11111222 
NERRS,ioos:station:NOAA.NERRS:rkblhwq:1,2019-11-08T14:45:00Z,26.0257,-81.7332,1.57,31.6,11111222 
NERRS,ioos:station:NOAA.NERRS:rkblhwq:1,2019-11-08T15:45:00Z,26.0257,-81.7332,1.63,32.0,11111222 
NERRS,ioos:station:NOAA.NERRS:rkblhwq:1,2019-11-08T16:45:00Z,26.0257,-81.7332,1.64,32.1,11111222 
NERRS,ioos:station:NOAA.NERRS:rkblhwq:1,2019-11-08T17:45:00Z,26.0257,-81.7332,1.55,32.0,11111222 
NERRS,ioos:station:NOAA.NERRS:rkblhwq:1,2019-11-08T18:45:00Z,26.0257,-81.7332,1.44,31.7,11111222 
NERRS,ioos:station:NOAA.NERRS:rkblhwq:1,2019-11-08T19:45:00Z,26.0257,-81.7332,1.32,31.4,11111222 
NERRS,ioos:station:NOAA.NERRS:rkblhwq:1,2019-11-08T20:45:00Z,26.0257,-81.7332,1.19,31.0,11111222 
NERRS,ioos:station:NOAA.NERRS:rkblhwq:1,2019-11-08T21:45:00Z,26.0257,-81.7332,1.1,31.0,11111222 
NERRS,ioos:station:NOAA.NERRS:rkblhwq:1,2019-11-08T22:45:00Z,26.0257,-81.7332,1.07,30.7,11111222 
NERRS,ioos:station:NOAA.NERRS:rkblhwq:1,2019-11-08T23:45:00Z,26.0257,-81.7332,1.17,31.1,11111222 
NERRS,ioos:station:NOAA.NERRS:rkblhwq:1,2019-11-09T00:45:00Z,26.0257,-81.7332,1.3,31.0,11111222 
NERRS,ioos:station:NOAA.NERRS:rkblhwq:1,2019-11-09T01:45:00Z,26.0257,-81.7332,1.43,31.1,11111222 
NERRS,ioos:station:NOAA.NERRS:rkblhwq:1,2019-11-09T02:45:00Z,26.0257,-81.7332,1.53,31.4,11111222 
NERRS,ioos:station:NOAA.NERRS:rkblhwq:1,2019-11-09T03:45:00Z,26.0257,-81.7332,1.6,31.9,11111222 
NERRS,ioos:station:NOAA.NERRS:rkblhwq:1,2019-11-09T04:45:00Z,26.0257,-81.7332,1.61,32.0,11111222 
NERRS,ioos:station:NOAA.NERRS:rkblhwq:1,2019-11-09T05:45:00Z,26.0257,-81.7332,1.54,31.4,11111222 
NERRS,ioos:station:NOAA.NERRS:rkblhwq:1,2019-11-09T06:45:00Z,26.0257,-81.7332,1.43,30.8,11111222 
NERRS,ioos:station:NOAA.NERRS:rkblhwq:1,2019-11-09T07:45:00Z,26.0257,-81.7332,1.29,30.7,11111222 
NERRS,ioos:station:NOAA.NERRS:rkblhwq:1,2019-11-09T08:45:00Z,26.0257,-81.7332,1.16,30.5,11111222 
NERRS,ioos:station:NOAA.NERRS:rkblhwq:1,2019-11-09T09:45:00Z,26.0257,-81.7332,1.04,30.5,11111222 
NERRS,ioos:station:NOAA.NERRS:rkblhwq:1,2019-11-09T10:45:00Z,26.0257,-81.7332,0.94,30.2,11111222 
NERRS,ioos:station:NOAA.NERRS:rkblhwq:1,2019-11-09T11:45:00Z,26.0257,-81.7332,0.96,30.1,11111222 
NERRS,ioos:station:NOAA.NERRS:rkblhwq:1,2019-11-09T12:45:00Z,26.0257,-81.7332,1.08,30.3,11111222 
NERRS,ioos:station:NOAA.NERRS:rkblhwq:1,2019-11-09T13:45:00Z,26.0257,-81.7332,1.2,30.6,11111222 
NERRS,ioos:station:NOAA.NERRS:rkblhwq:1,2019-11-09T14:45:00Z,26.0257,-81.7332,1.32,31.3,11111222 
NERRS,ioos:station:NOAA.NERRS:rkblhwq:1,2019-11-09T15:45:00Z,26.0257,-81.7332,1.4,31.4,11111222 
NERRS,ioos:station:NOAA.NERRS:rkblhwq:1,2019-11-09T16:45:00Z,26.0257,-81.7332,1.46,31.8,11111222 
NERRS,ioos:station:NOAA.NERRS:rkblhwq:1,2019-11-09T17:45:00Z,26.0257,-81.7332,1.42,31.1,11111222 
NERRS,ioos:station:NOAA.NERRS:rkblhwq:1,2019-11-09T18:45:00Z,26.0257,-81.7332,1.29,30.6,11111222 
NERRS,ioos:station:NOAA.NERRS:rkblhwq:1,2019-11-09T19:45:00Z,26.0257,-81.7332,1.16,30.6,11111222 
NERRS,ioos:station:NOAA.NERRS:rkblhwq:1,2019-11-09T20:45:00Z,26.0257,-81.7332,1.05,30.5,11111222 
NERRS,ioos:station:NOAA.NERRS:rkblhwq:1,2019-11-09T21:45:00Z,26.0257,-81.7332,0.98,30.4,11111222 
NERRS,ioos:station:NOAA.NERRS:rkblhwq:1,2019-11-09T22:45:00Z,26.0257,-81.7332,0.95,30.5,11111222 
NERRS,ioos:station:NOAA.NERRS:rkblhwq:1,2019-11-09T23:45:00Z,26.0257,-81.7332,1.02,30.6,11111222 
NERRS,ioos:station:NOAA.NERRS:rkblhwq:1,2019-11-10T00:45:00Z,26.0257,-81.7332,1.13,30.6,11111222 
NERRS,ioos:station:NOAA.NERRS:rkblhwq:1,2019-11-10T01:45:00Z,26.0257,-81.7332,1.28,31.0,11111222 
NERRS,ioos:station:NOAA.NERRS:rkblhwq:1,2019-11-10T02:45:00Z,26.0257,-81.7332,1.42,31.6,11111222 
NERRS,ioos:station:NOAA.NERRS:rkblhwq:1,2019-11-10T03:45:00Z,26.0257,-81.7332,1.54,31.7,11111222 
NERRS,ioos:station:NOAA.NERRS:rkblhwq:1,2019-11-10T04:45:00Z,26.0257,-81.7332,1.62,31.9,11111222 
NERRS,ioos:station:NOAA.NERRS:rkblhwq:1,2019-11-10T05:45:00Z,26.0257,-81.7332,1.59,32.0,11111222 
NERRS,ioos:station:NOAA.NERRS:rkblhwq:1,2019-11-10T06:45:00Z,26.0257,-81.7332,1.48,31.0,11111222 
NERRS,ioos:station:NOAA.NERRS:rkblhwq:1,2019-11-10T07:45:00Z,26.0257,-81.7332,1.34,30.8,11111222 
NERRS,ioos:station:NOAA.NERRS:rkblhwq:1,2019-11-10T08:45:00Z,26.0257,-81.7332,1.19,30.4,11111222 
NERRS,ioos:station:NOAA.NERRS:rkblhwq:1,2019-11-10T09:45:00Z,26.0257,-81.7332,1.06,30.5,11111222 
NERRS,ioos:station:NOAA.NERRS:rkblhwq:1,2019-11-10T10:45:00Z,26.0257,-81.7332,0.95,30.7,11111222 
NERRS,ioos:station:NOAA.NERRS:rkblhwq:1,2019-11-10T11:45:00Z,26.0257,-81.7332,0.94,30.0,11111222 
NERRS,ioos:station:NOAA.NERRS:rkblhwq:1,2019-11-10T12:45:00Z,26.0257,-81.7332,1.04,30.5,11111222 
NERRS,ioos:station:NOAA.NERRS:rkblhwq:1,2019-11-10T13:45:00Z,26.0257,-81.7332,1.19,30.7,11111222 
NERRS,ioos:station:NOAA.NERRS:rkblhwq:1,2019-11-10T14:45:00Z,26.0257,-81.7332,1.33,31.4,11111222 
NERRS,ioos:station:NOAA.NERRS:rkblhwq:1,2019-11-10T15:45:00Z,26.0257,-81.7332,1.47,31.6,11111222 
NERRS,ioos:station:NOAA.NERRS:rkblhwq:1,2019-11-10T16:45:00Z,26.0257,-81.7332,1.56,31.9,11111222 
NERRS,ioos:station:NOAA.NERRS:rkblhwq:1,2019-11-10T17:45:00Z,26.0257,-81.7332,1.59,32.1,11111222 
NERRS,ioos:station:NOAA.NERRS:rkblhwq:1,2019-11-10T18:45:00Z,26.0257,-81.7332,1.51,31.4,11111222 
NERRS,ioos:station:NOAA.NERRS:rkblhwq:1,2019-11-10T19:45:00Z,26.0257,-81.7332,1.41,31.1,11111222 
NERRS,ioos:station:NOAA.NERRS:rkblhwq:1,2019-11-10T20:45:00Z,26.0257,-81.7332,1.3,31.0,11111222 
NERRS,ioos:station:NOAA.NERRS:rkblhwq:1,2019-11-10T21:45:00Z,26.0257,-81.7332,1.21,30.8,11111222 
NERRS,ioos:station:NOAA.NERRS:rkblhwq:1,2019-11-10T22:45:00Z,26.0257,-81.7332,1.13,30.8,11111222 
NERRS,ioos:station:NOAA.NERRS:rkblhwq:1,2019-11-10T23:45:00Z,26.0257,-81.7332,1.15,30.7,11111222 
NERRS,ioos:station:NOAA.NERRS:rkblhwq:1,2019-11-11T00:45:00Z,26.0257,-81.7332,1.25,31.1,11111222 
NERRS,ioos:station:NOAA.NERRS:rkblhwq:1,2019-11-11T01:45:00Z,26.0257,-81.7332,1.37,31.4,11111222 
NERRS,ioos:station:NOAA.NERRS:rkblhwq:1,2019-11-11T02:45:00Z,26.0257,-81.7332,1.5,31.7,11111222 
NERRS,ioos:station:NOAA.NERRS:rkblhwq:1,2019-11-11T03:45:00Z,26.0257,-81.7332,1.61,32.2,11111222 
NERRS,ioos:station:NOAA.NERRS:rkblhwq:1,2019-11-11T04:45:00Z,26.0257,-81.7332,1.68,32.4,11111222 
NERRS,ioos:station:NOAA.NERRS:rkblhwq:1,2019-11-11T05:45:00Z,26.0257,-81.7332,1.68,32.5,11111222 
NERRS,ioos:station:NOAA.NERRS:rkblhwq:1,2019-11-11T06:45:00Z,26.0257,-81.7332,1.58,31.3,11111222 
NERRS,ioos:station:NOAA.NERRS:rkblhwq:1,2019-11-11T07:45:00Z,26.0257,-81.7332,1.45,31.4,11111222 
NERRS,ioos:station:NOAA.NERRS:rkblhwq:1,2019-11-11T08:45:00Z,26.0257,-81.7332,1.29,31.0,11111222 
NERRS,ioos:station:NOAA.NERRS:rkblhwq:1,2019-11-11T09:45:00Z,26.0257,-81.7332,1.15,30.8,11111222 
NERRS,ioos:station:NOAA.NERRS:rkblhwq:1,2019-11-11T10:45:00Z,26.0257,-81.7332,1.03,30.8,11111222 
NERRS,ioos:station:NOAA.NERRS:rkblhwq:1,2019-11-11T11:45:00Z,26.0257,-81.7332,0.96,30.9,11111222 
NERRS,ioos:station:NOAA.NERRS:rkblhwq:1,2019-11-11T12:45:00Z,26.0257,-81.7332,1.02,30.6,11111222 
NERRS,ioos:station:NOAA.NERRS:rkblhwq:1,2019-11-11T13:45:00Z,26.0257,-81.7332,1.15,31.0,11111222 
NERRS,ioos:station:NOAA.NERRS:rkblhwq:1,2019-11-11T14:45:00Z,26.0257,-81.7332,1.31,31.2,11111222 
NERRS,ioos:station:NOAA.NERRS:rkblhwq:1,2019-11-11T15:45:00Z,26.0257,-81.7332,1.45,31.6,11111222 
NERRS,ioos:station:NOAA.NERRS:rkblhwq:1,2019-11-11T16:45:00Z,26.0257,-81.7332,1.57,32.0,11111222 
NERRS,ioos:station:NOAA.NERRS:rkblhwq:1,2019-11-11T17:45:00Z,26.0257,-81.7332,1.65,32.4,11111222 
NERRS,ioos:station:NOAA.NERRS:rkblhwq:1,2019-11-11T18:45:00Z,26.0257,-81.7332,1.66,32.6,11111222 
NERRS,ioos:station:NOAA.NERRS:rkblhwq:1,2019-11-11T19:45:00Z,26.0257,-81.7332,1.6,31.8,11111222 
NERRS,ioos:station:NOAA.NERRS:rkblhwq:1,2019-11-11T20:45:00Z,26.0257,-81.7332,1.52,31.5,11111222 
NERRS,ioos:station:NOAA.NERRS:rkblhwq:1,2019-11-11T21:45:00Z,26.0257,-81.7332,1.42,31.8,11111222 
NERRS,ioos:station:NOAA.NERRS:rkblhwq:1,2019-11-11T22:45:00Z,26.0257,-81.7332,1.32,32.1,11111222 
NERRS,ioos:station:NOAA.NERRS:rkblhwq:1,2019-11-11T23:45:00Z,26.0257,-81.7332,1.26,31.8,11111222 
NERRS,ioos:station:NOAA.NERRS:rkblhwq:1,2019-11-12T00:45:00Z,26.0257,-81.7332,1.34,31.9,11111222 
NERRS,ioos:station:NOAA.NERRS:rkblhwq:1,2019-11-12T01:45:00Z,26.0257,-81.7332,1.47,31.8,11111222 
NERRS,ioos:station:NOAA.NERRS:rkblhwq:1,2019-11-12T02:45:00Z,26.0257,-81.7332,1.61,32.2,11111222 
NERRS,ioos:station:NOAA.NERRS:rkblhwq:1,2019-11-12T03:45:00Z,26.0257,-81.7332,1.71,32.6,11111222 
NERRS,ioos:station:NOAA.NERRS:rkblhwq:1,2019-11-12T04:45:00Z,26.0257,-81.7332,1.78,33.0,11111222 
NERRS,ioos:station:NOAA.NERRS:rkblhwq:1,2019-11-12T05:45:00Z,26.0257,-81.7332,1.81,33.4,11111222 
NERRS,ioos:station:NOAA.NERRS:rkblhwq:1,2019-11-12T06:45:00Z,26.0257,-81.7332,1.75,32.3,11111222 
NERRS,ioos:station:NOAA.NERRS:rkblhwq:1,2019-11-12T07:45:00Z,26.0257,-81.7332,1.64,33.1,11111222 
NERRS,ioos:station:NOAA.NERRS:rkblhwq:1,2019-11-12T08:45:00Z,26.0257,-81.7332,1.52,32.2,11111222 
NERRS,ioos:station:NOAA.NERRS:rkblhwq:1,2019-11-12T09:45:00Z,26.0257,-81.7332,1.36,31.4,11111222 
NERRS,ioos:station:NOAA.NERRS:rkblhwq:1,2019-11-12T10:45:00Z,26.0257,-81.7332,1.2,31.3,11111222 
NERRS,ioos:station:NOAA.NERRS:rkblhwq:1,2019-11-12T11:45:00Z,26.0257,-81.7332,1.06,31.3,11111222 
NERRS,ioos:station:NOAA.NERRS:rkblhwq:1,2019-11-12T12:45:00Z,26.0257,-81.7332,1.0,31.4,11111222 
NERRS,ioos:station:NOAA.NERRS:rkblhwq:1,2019-11-12T13:45:00Z,26.0257,-81.7332,1.11,31.8,11111222 
NERRS,ioos:station:NOAA.NERRS:rkblhwq:1,2019-11-12T14:45:00Z,26.0257,-81.7332,1.27,32.1,11111222 
NERRS,ioos:station:NOAA.NERRS:rkblhwq:1,2019-11-12T15:45:00Z,26.0257,-81.7332,1.44,32.4,11111222 
NERRS,ioos:station:NOAA.NERRS:rkblhwq:1,2019-11-12T16:45:00Z,26.0257,-81.7332,1.6,32.7,11111222 
NERRS,ioos:station:NOAA.NERRS:rkblhwq:1,2019-11-12T17:45:00Z,26.0257,-81.7332,1.68,32.7,11111222 
NERRS,ioos:station:NOAA.NERRS:rkblhwq:1,2019-11-12T18:45:00Z,26.0257,-81.7332,1.71,32.9,11111222 
NERRS,ioos:station:NOAA.NERRS:rkblhwq:1,2019-11-12T19:45:00Z,26.0257,-81.7332,1.7,32.8,11111222 
NERRS,ioos:station:NOAA.NERRS:rkblhwq:1,2019-11-12T20:45:00Z,26.0257,-81.7332,1.62,32.8,11111222 
NERRS,ioos:station:NOAA.NERRS:rkblhwq:1,2019-11-12T21:45:00Z,26.0257,-81.7332,1.53,33.0,11111222 
NERRS,ioos:station:NOAA.NERRS:rkblhwq:1,2019-11-12T22:45:00Z,26.0257,-81.7332,1.42,32.7,11111222 
NERRS,ioos:station:NOAA.NERRS:rkblhwq:1,2019-11-12T23:45:00Z,26.0257,-81.7332,1.32,32.5,11111222 
NERRS,ioos:station:NOAA.NERRS:rkblhwq:1,2019-11-13T00:45:00Z,26.0257,-81.7332,1.3,32.4,11111222 
NERRS,ioos:station:NOAA.NERRS:rkblhwq:1,2019-11-13T01:45:00Z,26.0257,-81.7332,1.4,32.4,11111222 
NERRS,ioos:station:NOAA.NERRS:rkblhwq:1,2019-11-13T02:45:00Z,26.0257,-81.7332,1.54,32.6,11111222 
NERRS,ioos:station:NOAA.NERRS:rkblhwq:1,2019-11-13T03:45:00Z,26.0257,-81.7332,1.66,32.8,11111222 
NERRS,ioos:station:NOAA.NERRS:rkblhwq:1,2019-11-13T04:45:00Z,26.0257,-81.7332,1.74,33.1,11111222 
NERRS,ioos:station:NOAA.NERRS:rkblhwq:1,2019-11-13T05:45:00Z,26.0257,-81.7332,1.81,33.6,11111222 
NERRS,ioos:station:NOAA.NERRS:rkblhwq:1,2019-11-13T06:45:00Z,26.0257,-81.7332,1.83,33.7,11111222 
NERRS,ioos:station:NOAA.NERRS:rkblhwq:1,2019-11-13T07:45:00Z,26.0257,-81.7332,1.76,33.3,11111222 
NERRS,ioos:station:NOAA.NERRS:rkblhwq:1,2019-11-13T08:45:00Z,26.0257,-81.7332,1.65,33.4,11111222 
NERRS,ioos:station:NOAA.NERRS:rkblhwq:1,2019-11-13T09:45:00Z,26.0257,-81.7332,1.51,32.9,11111222 
NERRS,ioos:station:NOAA.NERRS:rkblhwq:1,2019-11-13T10:45:00Z,26.0257,-81.7332,1.34,32.5,11111222 
NERRS,ioos:station:NOAA.NERRS:rkblhwq:1,2019-11-13T11:45:00Z,26.0257,-81.7332,1.16,32.1,11111222 
NERRS,ioos:station:NOAA.NERRS:rkblhwq:1,2019-11-13T12:45:00Z,26.0257,-81.7332,1.02,32.0,11111222 
NERRS,ioos:station:NOAA.NERRS:rkblhwq:1,2019-11-13T13:45:00Z,26.0257,-81.7332,0.95,31.9,11111222 
NERRS,ioos:station:NOAA.NERRS:rkblhwq:1,2019-11-13T14:45:00Z,26.0257,-81.7332,1.01,32.1,11111222 
NERRS,ioos:station:NOAA.NERRS:rkblhwq:1,2019-11-13T15:45:00Z,26.0257,-81.7332,1.16,32.1,11111222 
NERRS,ioos:station:NOAA.NERRS:rkblhwq:1,2019-11-13T16:45:00Z,26.0257,-81.7332,1.31,32.7,11111222 
NERRS,ioos:station:NOAA.NERRS:rkblhwq:1,2019-11-13T17:45:00Z,26.0257,-81.7332,1.46,32.7,11111222 
NERRS,ioos:station:NOAA.NERRS:rkblhwq:1,2019-11-13T18:45:00Z,26.0257,-81.7332,1.58,33.0,11111222 
NERRS,ioos:station:NOAA.NERRS:rkblhwq:1,2019-11-13T19:45:00Z,26.0257,-81.7332,1.64,33.1,11111222 
NERRS,ioos:station:NOAA.NERRS:rkblhwq:1,2019-11-13T20:45:00Z,26.0257,-81.7332,1.58,32.7,11111222 
NERRS,ioos:station:NOAA.NERRS:rkblhwq:1,2019-11-13T21:45:00Z,26.0257,-81.7332,1.48,32.4,11111222 
NERRS,ioos:station:NOAA.NERRS:rkblhwq:1,2019-11-13T22:45:00Z,26.0257,-81.7332,1.38,32.4,11111222 
NERRS,ioos:station:NOAA.NERRS:rkblhwq:1,2019-11-13T23:45:00Z,26.0257,-81.7332,1.29,32.2,11111222 
NERRS,ioos:station:NOAA.NERRS:rkblhwq:1,2019-11-14T00:45:00Z,26.0257,-81.7332,1.23,32.1,11111222 
NERRS,ioos:station:NOAA.NERRS:rkblhwq:1,2019-11-14T01:45:00Z,26.0257,-81.7332,1.28,32.1,11111222 
NERRS,ioos:station:NOAA.NERRS:rkblhwq:1,2019-11-14T02:45:00Z,26.0257,-81.7332,1.39,32.3,11111222 
NERRS,ioos:station:NOAA.NERRS:rkblhwq:1,2019-11-14T03:45:00Z,26.0257,-81.7332,1.51,32.5,11111222 
NERRS,ioos:station:NOAA.NERRS:rkblhwq:1,2019-11-14T04:45:00Z,26.0257,-81.7332,1.63,32.9,11111222 
NERRS,ioos:station:NOAA.NERRS:rkblhwq:1,2019-11-14T05:45:00Z,26.0257,-81.7332,1.71,33.2,11111222 
NERRS,ioos:station:NOAA.NERRS:rkblhwq:1,2019-11-14T06:45:00Z,26.0257,-81.7332,1.75,33.4,11111222 
NERRS,ioos:station:NOAA.NERRS:rkblhwq:1,2019-11-14T07:45:00Z,26.0257,-81.7332,1.7,33.3,11111222 
NERRS,ioos:station:NOAA.NERRS:rkblhwq:1,2019-11-14T08:45:00Z,26.0257,-81.7332,1.6,32.6,11111222 
NERRS,ioos:station:NOAA.NERRS:rkblhwq:1,2019-11-14T09:45:00Z,26.0257,-81.7332,1.46,32.2,11111222 
NERRS,ioos:station:NOAA.NERRS:rkblhwq:1,2019-11-14T10:45:00Z,26.0257,-81.7332,1.3,32.2,11111222 
NERRS,ioos:station:NOAA.NERRS:rkblhwq:1,2019-11-14T11:45:00Z,26.0257,-81.7332,1.14,32.2,11111222 
NERRS,ioos:station:NOAA.NERRS:rkblhwq:1,2019-11-14T12:45:00Z,26.0257,-81.7332,1.01,32.3,11111222 
NERRS,ioos:station:NOAA.NERRS:rkblhwq:1,2019-11-14T13:45:00Z,26.0257,-81.7332,0.91,32.1,11111222 
NERRS,ioos:station:NOAA.NERRS:rkblhwq:1,2019-11-14T14:45:00Z,26.0257,-81.7332,0.94,31.7,11111222 
NERRS,ioos:station:NOAA.NERRS:rkblhwq:1,2019-11-14T15:45:00Z,26.0257,-81.7332,1.08,32.0,11111222 
NERRS,ioos:station:NOAA.NERRS:rkblhwq:1,2019-11-14T16:45:00Z,26.0257,-81.7332,1.25,32.7,11111222 
NERRS,ioos:station:NOAA.NERRS:rkblhwq:1,2019-11-14T17:45:00Z,26.0257,-81.7332,1.41,32.9,11111222 
NERRS,ioos:station:NOAA.NERRS:rkblhwq:1,2019-11-14T18:45:00Z,26.0257,-81.7332,1.56,32.9,11111222 
NERRS,ioos:station:NOAA.NERRS:rkblhwq:1,2019-11-14T20:45:00Z,26.0257,-81.7332,1.67,33.1,11111222 
NERRS,ioos:station:NOAA.NERRS:rkblhwq:1,2019-11-14T21:45:00Z,26.0257,-81.7332,1.62,33.0,11111222 
NERRS,ioos:station:NOAA.NERRS:rkblhwq:1,2019-11-14T22:45:00Z,26.0257,-81.7332,1.55,32.5,11111222 
NERRS,ioos:station:NOAA.NERRS:rkblhwq:1,2019-11-14T23:45:00Z,26.0257,-81.7332,1.47,32.2,11111222 
NERRS,ioos:station:NOAA.NERRS:rkblhwq:1,2019-11-15T00:45:00Z,26.0257,-81.7332,1.41,32.1,11111222 
NERRS,ioos:station:NOAA.NERRS:rkblhwq:1,2019-11-15T01:45:00Z,26.0257,-81.7332,1.39,32.5,11111222 
NERRS,ioos:station:NOAA.NERRS:rkblhwq:1,2019-11-15T02:45:00Z,26.0257,-81.7332,1.48,33.0,11111222 
NERRS,ioos:station:NOAA.NERRS:rkblhwq:1,2019-11-15T03:45:00Z,26.0257,-81.7332,1.6,33.0,11111222 
NERRS,ioos:station:NOAA.NERRS:rkblhwq:1,2019-11-15T04:45:00Z,26.0257,-81.7332,1.7,33.4,11111222 
NERRS,ioos:station:NOAA.NERRS:rkblhwq:1,2019-11-15T05:45:00Z,26.0257,-81.7332,1.78,33.8,11111222 
NERRS,ioos:station:NOAA.NERRS:rkblhwq:1,2019-11-15T06:45:00Z,26.0257,-81.7332,1.82,34.0,11111222 
NERRS,ioos:station:NOAA.NERRS:rkblhwq:1,2019-11-15T07:45:00Z,26.0257,-81.7332,1.83,34.3,11111222 
NERRS,ioos:station:NOAA.NERRS:rkblhwq:1,2019-11-15T08:45:00Z,26.0257,-81.7332,1.76,33.8,11111222 
NERRS,ioos:station:NOAA.NERRS:rkblhwq:1,2019-11-15T09:45:00Z,26.0257,-81.7332,1.65,33.9,11111222 
NERRS,ioos:station:NOAA.NERRS:rkblhwq:1,2019-11-15T10:45:00Z,26.0257,-81.7332,1.53,33.0,11111222 
NERRS,ioos:station:NOAA.NERRS:rkblhwq:1,2019-11-15T11:45:00Z,26.0257,-81.7332,1.38,32.6,11111222 
NERRS,ioos:station:NOAA.NERRS:rkblhwq:1,2019-11-15T12:45:00Z,26.0257,-81.7332,1.21,32.4,11111222 
NERRS,ioos:station:NOAA.NERRS:rkblhwq:1,2019-11-15T13:45:00Z,26.0257,-81.7332,1.07,32.4,11111222 
NERRS,ioos:station:NOAA.NERRS:rkblhwq:1,2019-11-15T14:45:00Z,26.0257,-81.7332,1.0,32.4,11111222 
NERRS,ioos:station:NOAA.NERRS:rkblhwq:1,2019-11-15T15:45:00Z,26.0257,-81.7332,1.08,32.5,11111222 
NERRS,ioos:station:NOAA.NERRS:rkblhwq:1,2019-11-15T16:45:00Z,26.0257,-81.7332,1.25,32.7,11111222 
NERRS,ioos:station:NOAA.NERRS:rkblhwq:1,2019-11-15T17:45:00Z,26.0257,-81.7332,1.4,33.2,11111222 
NERRS,ioos:station:NOAA.NERRS:rkblhwq:1,2019-11-15T18:45:00Z,26.0257,-81.7332,1.53,33.3,11111222 